Stations météo

réclame
Mon MeteoGroup
Ibiza/Es Codola, Espagne (8373): Température de l'air & dewpoint: 11.11.2017 23:00:00 - 17.11.2017 23:00:00 (CET)Ibiza/Es Codola, Espagne (8373): Vitesse du vent: 11.11.2017 23:00:00 - 17.11.2017 23:00:00 (CET)Ibiza/Es Codola, Espagne (8373): Direction du vent: 11.11.2017 23:00:00 - 17.11.2017 23:00:00 (CET)Ibiza/Es Codola, Espagne (8373): reduced air pressure: 11.11.2017 23:00:00 - 17.11.2017 23:00:00 (CET)Ibiza/Es Codola, Espagne (8373): visibility: 11.11.2017 23:00:00 - 17.11.2017 23:00:00 (CET)
Date & Time tt [°C] td [°C] ff [km/h] ff [knt] dd ppp [hPa] vv [km]
17.11.2017 23:00:00 9,6 8,5 2 1 - 1020,4 10
17.11.2017 22:00:00 10,1 9,0 0 0 N 1020,3 10
17.11.2017 21:00:00 11,1 9,2 4 2 NW 1020,0 10
17.11.2017 20:00:00 12,5 9,9 0 0 N 1020,0 10
17.11.2017 19:00:00 14,5 11,3 0 0 N 1019,5 10
17.11.2017 18:00:00 14,6 10,9 5 3 WSW 1019,1 10
17.11.2017 17:00:00 17,0 11,3 11 6 NW 1019,0 10
17.11.2017 16:00:00 17,7 11,3 11 6 WNW 1019,2 10
17.11.2017 15:00:00 19,0 10,4 11 6 NW 1019,3 10
17.11.2017 14:00:00 18,5 11,7 15 8 WNW 1019,9 10
17.11.2017 13:00:00 19,2 11,6 16 9 SW 1019,7 10
17.11.2017 12:00:00 18,9 11,7 13 7 SSW 1020,3 10
17.11.2017 11:00:00 18,3 12,1 9 5 S 1020,5 10
17.11.2017 10:00:00 15,9 12,8 0 0 N 1020,5 10
17.11.2017 09:00:00 12,3 11,1 0 0 N 1020,4 10
17.11.2017 08:00:00 9,3 8,7 2 1 - 1020,1 10
17.11.2017 07:00:00 9,1 8,8 0 0 N 1019,8 10
17.11.2017 06:00:00 8,1 7,7 0 0 N 1019,5 -
17.11.2017 05:00:00 9,1 8,6 0 0 N 1019,8 -
17.11.2017 04:00:00 8,5 7,9 0 0 N 1019,9 -
17.11.2017 03:00:00 8,3 7,9 0 0 N 1020,0 -
17.11.2017 02:00:00 8,5 7,7 0 0 N 1020,2 -
17.11.2017 01:00:00 9,3 8,4 0 0 N 1020,6 -
17.11.2017 00:00:00 9,5 8,4 0 0 N 1020,9 10
16.11.2017 23:00:00 9,8 8,2 4 2 NNW 1020,9 10
16.11.2017 22:00:00 10,3 8,4 0 0 N 1020,9 10
16.11.2017 21:00:00 10,2 8,5 0 0 N 1020,4 10
16.11.2017 20:00:00 11,7 9,1 0 0 N 1020,0 10
16.11.2017 19:00:00 13,4 9,8 9 5 NW 1019,5 10
16.11.2017 18:00:00 14,4 10,4 11 6 WSW 1019,2 10
16.11.2017 17:00:00 17,7 10,1 11 6 SW 1019,1 10
16.11.2017 16:00:00 18,5 10,8 13 7 SW 1019,0 10
16.11.2017 15:00:00 19,0 10,3 15 8 SW 1019,1 10
16.11.2017 14:00:00 19,1 11,3 16 9 SW 1019,2 10
16.11.2017 13:00:00 18,9 11,4 13 7 SSW 1019,8 10
16.11.2017 12:00:00 19,0 12,0 13 7 SSW 1020,2 10
16.11.2017 11:00:00 17,1 12,0 5 3 SSW 1020,5 10
16.11.2017 10:00:00 16,8 12,0 0 0 N 1020,1 10
16.11.2017 09:00:00 12,2 10,6 0 0 N 1019,7 10
16.11.2017 08:00:00 9,2 8,2 0 0 N 1019,2 10
16.11.2017 07:00:00 9,5 8,5 0 0 N 1018,6 10
16.11.2017 06:00:00 8,3 7,5 0 0 N 1018,5 -
16.11.2017 05:00:00 8,6 7,5 0 0 N 1018,3 -
16.11.2017 04:00:00 9,1 7,8 5 3 N 1018,5 -
16.11.2017 03:00:00 8,8 7,7 9 5 NNW 1018,8 -
16.11.2017 02:00:00 9,1 7,7 4 2 N 1018,7 -
16.11.2017 01:00:00 9,2 7,5 4 2 NNW 1019,1 -
16.11.2017 00:00:00 9,2 7,5 0 0 N 1019,2 10
15.11.2017 23:00:00 9,0 7,1 0 0 N 1019,3 10
15.11.2017 22:00:00 9,3 7,2 8 4 N 1019,3 10
15.11.2017 21:00:00 9,2 6,3 2 1 NNW 1019,0 10
15.11.2017 20:00:00 10,1 6,8 9 5 NNW 1019,0 10
15.11.2017 19:00:00 11,3 7,0 8 4 N 1018,5 10
15.11.2017 18:00:00 14,3 8,2 9 5 SW 1018,2 10
15.11.2017 17:00:00 16,2 7,9 16 9 SW 1018,0 10
15.11.2017 16:00:00 17,5 8,1 21 11 WSW 1017,9 10
15.11.2017 15:00:00 17,9 7,3 18 10 WSW 1018,1 10
15.11.2017 14:00:00 17,7 7,3 21 11 SW 1018,5 10
15.11.2017 13:00:00 17,7 7,8 21 11 WSW 1019,2 10
15.11.2017 12:00:00 17,4 7,1 16 9 SW 1020,0 10
15.11.2017 11:00:00 16,9 7,5 16 9 SW 1020,8 10
15.11.2017 10:00:00 15,7 5,3 4 2 - 1020,7 10
15.11.2017 09:00:00 11,2 6,5 0 0 N 1020,5 10
15.11.2017 08:00:00 6,1 3,5 0 0 N 1020,2 10
15.11.2017 07:00:00 5,6 3,8 0 0 N 1019,8 10
15.11.2017 06:00:00 6,3 4,5 0 0 N 1019,6 -
15.11.2017 05:00:00 7,1 4,8 0 0 N 1019,8 -
15.11.2017 04:00:00 7,7 5,0 2 1 SW 1020,0 -
15.11.2017 03:00:00 8,3 4,8 0 0 N 1020,0 -
15.11.2017 02:00:00 8,3 4,7 4 2 NW 1020,1 -
15.11.2017 01:00:00 7,1 4,4 0 0 N 1020,3 -
15.11.2017 00:00:00 7,4 3,8 2 1 - 1020,6 10
14.11.2017 23:00:00 8,3 5,1 2 1 - 1020,5 10
14.11.2017 22:00:00 8,3 4,7 9 5 NNW 1020,6 10
14.11.2017 21:00:00 8,8 4,8 9 5 N 1020,4 10
14.11.2017 20:00:00 10,0 5,2 9 5 N 1020,0 10
14.11.2017 19:00:00 10,6 5,1 11 6 N 1019,6 10
14.11.2017 18:00:00 12,5 5,6 8 4 N 1018,8 10
14.11.2017 17:00:00 14,7 5,5 11 6 NNE 1018,4 10
14.11.2017 16:00:00 15,6 4,1 13 7 N 1018,2 10
14.11.2017 15:00:00 15,7 2,6 16 9 NNE 1018,0 10
14.11.2017 14:00:00 16,2 3,3 16 9 NNE 1017,9 10
14.11.2017 13:00:00 16,0 4,1 18 10 NNE 1018,2 10
14.11.2017 12:00:00 16,1 5,1 16 9 N 1018,4 10
14.11.2017 11:00:00 16,1 6,8 9 5 - 1018,6 10
14.11.2017 10:00:00 14,7 4,4 9 5 N 1018,4 10
14.11.2017 09:00:00 11,3 4,7 4 2 S 1017,9 10
14.11.2017 08:00:00 9,3 3,7 0 0 N 1017,4 10
14.11.2017 07:00:00 9,3 3,7 5 3 NNE 1016,7 10
14.11.2017 06:00:00 11,2 3,9 18 10 N 1016,1 -
14.11.2017 05:00:00 10,6 4,6 13 7 NNE 1015,9 -
14.11.2017 04:00:00 11,2 4,4 11 6 N 1016,1 -
14.11.2017 03:00:00 11,4 4,1 9 5 N 1016,2 -
14.11.2017 02:00:00 11,3 4,3 11 6 N 1015,9 -
14.11.2017 01:00:00 9,1 3,1 5 3 NNE 1015,8 -
14.11.2017 00:00:00 10,6 2,9 5 3 NW 1015,9 10
13.11.2017 23:00:00 11,3 2,3 0 0 N 1015,8 10
13.11.2017 22:00:00 10,7 2,1 0 0 N 1015,6 10
13.11.2017 21:00:00 8,7 4,7 0 0 N 1015,5 10
13.11.2017 20:00:00 9,8 6,6 0 0 N 1015,8 10
13.11.2017 19:00:00 10,1 8,2 8 4 NW 1015,7 10
13.11.2017 18:00:00 11,8 9,2 2 1 - 1015,3 10
13.11.2017 17:00:00 13,3 9,6 5 3 E 1014,7 10
13.11.2017 16:00:00 14,0 9,0 21 11 ENE 1014,5 10
13.11.2017 15:00:00 14,6 9,8 18 10 ENE 1014,2 10
13.11.2017 14:00:00 14,4 10,2 15 8 ENE 1014,0 10
13.11.2017 13:00:00 16,2 6,3 24 13 N 1014,1 10
13.11.2017 12:00:00 17,6 5,2 28 15 NNW 1014,0 10
13.11.2017 11:00:00 17,2 5,5 28 15 NNW 1014,0 10
13.11.2017 10:00:00 16,6 5,0 24 13 NNW 1013,7 10
13.11.2017 09:00:00 16,6 5,2 24 13 N 1013,1 10
13.11.2017 08:00:00 16,2 5,2 21 11 N 1012,6 10
13.11.2017 07:00:00 16,4 9,8 9 5 NNW 1011,3 10
13.11.2017 06:00:00 16,2 8,9 11 6 NNW 1010,7 -
13.11.2017 05:00:00 16,0 8,7 4 2 WNW 1010,4 -
13.11.2017 04:00:00 17,2 9,9 13 7 NW 1010,5 -
13.11.2017 03:00:00 17,1 10,7 15 8 WNW 1011,1 -
13.11.2017 02:00:00 15,9 11,3 15 8 WNW 1011,6 -
13.11.2017 01:00:00 13,7 11,9 9 5 WNW 1012,5 -
13.11.2017 00:00:00 14,8 12,2 8 4 WNW 1012,6 10
12.11.2017 23:00:00 15,4 13,1 5 3 W 1013,2 10
12.11.2017 22:00:00 15,2 12,3 9 5 W 1013,9 10
12.11.2017 21:00:00 16,1 12,5 13 7 W 1014,2 10
12.11.2017 20:00:00 15,2 11,4 11 6 W 1014,8 10
12.11.2017 19:00:00 14,4 10,4 5 3 W 1014,9 10
12.11.2017 18:00:00 16,2 11,6 13 7 WSW 1014,7 10
12.11.2017 17:00:00 18,2 11,5 15 8 SW 1014,8 10
12.11.2017 16:00:00 19,2 11,3 18 10 SW 1015,1 10
12.11.2017 15:00:00 20,4 9,1 13 7 W 1015,7 10
12.11.2017 14:00:00 20,1 9,6 11 6 NNW 1016,6 10
12.11.2017 13:00:00 20,7 9,3 13 7 WNW 1017,2 10
12.11.2017 12:00:00 20,3 10,3 11 6 NW 1018,1 10
12.11.2017 11:00:00 19,9 11,2 5 3 - 1018,5 10
12.11.2017 10:00:00 18,9 11,0 0 0 N 1018,8 10
12.11.2017 09:00:00 15,3 12,0 0 0 N 1019,1 10
12.11.2017 08:00:00 10,8 9,2 2 1 - 1018,9 10
12.11.2017 07:00:00 11,0 10,2 0 0 N 1018,7 10
12.11.2017 06:00:00 9,3 8,4 0 0 N 1018,9 10
12.11.2017 05:00:00 10,7 9,7 2 1 - 1018,9 10
12.11.2017 04:00:00 10,8 9,9 8 4 NNW 1019,1 10
12.11.2017 03:00:00 12,8 11,7 5 3 NW 1019,6 10
12.11.2017 02:00:00 12,0 10,7 2 1 NW 1019,9 -
12.11.2017 01:00:00 11,8 9,8 4 2 W 1020,5 -
12.11.2017 00:00:00 13,5 10,7 11 6 NW 1021,1 10
11.11.2017 23:00:00 12,8 10,0 9 5 WNW 1021,5 10

tt = Température de l'air
td = dewpoint
ff = Vitesse du vent
dd = Direction du vent
ppp = reduced air pressure
vv = visibility

stations d'obs. à proximité